Weather reports worldwide

Advertisment
St. James's Park, United Kingdom (3770): temperature & dewpoint: 03.08.2020 21:00:00 - 09.08.2020 21:00:00 (BST)St. James's Park, United Kingdom (3770): precipitation: 03.08.2020 21:00:00 - 09.08.2020 21:00:00 (BST)
Date & Time tt [°C] td [°C] rr [mm]
09.08.2020 21:00:00 26,8 17,1 0,0
09.08.2020 20:00:00 28,2 16,9 0,0
09.08.2020 19:00:00 29,1 17,2 0,0
09.08.2020 18:00:00 30,4 16,3 0,0
09.08.2020 17:00:00 31,0 16,5 0,0
09.08.2020 16:00:00 31,8 17,1 0,0
09.08.2020 15:00:00 30,9 17,2 0,0
09.08.2020 14:00:00 31,5 18,2 0,0
09.08.2020 13:00:00 28,8 17,0 0,0
09.08.2020 12:00:00 25,8 16,9 0,0
09.08.2020 11:00:00 23,5 16,4 0,0
09.08.2020 10:00:00 20,9 15,7 0,0
09.08.2020 09:00:00 19,4 15,4 0,0
09.08.2020 08:00:00 18,7 15,3 0,0
09.08.2020 07:00:00 18,1 15,2 0,0
09.08.2020 06:00:00 17,9 15,2 0,0
09.08.2020 05:00:00 17,9 15,1 0,0
09.08.2020 04:00:00 18,0 15,0 0,0
09.08.2020 03:00:00 18,5 15,1 0,0
09.08.2020 02:00:00 18,6 15,1 0,0
09.08.2020 01:00:00 19,0 15,1 0,0
09.08.2020 00:00:00 20,3 15,2 0,0
08.08.2020 23:00:00 22,1 15,6 0,0
08.08.2020 22:00:00 24,0 15,8 0,0
08.08.2020 21:00:00 26,1 15,3 0,0
08.08.2020 20:00:00 27,8 15,6 0,0
08.08.2020 19:00:00 29,1 16,3 0,0
08.08.2020 18:00:00 30,8 16,1 0,0
08.08.2020 17:00:00 32,6 16,4 0,0
08.08.2020 16:00:00 32,3 16,6 0,0
08.08.2020 15:00:00 31,2 16,9 0,0
08.08.2020 14:00:00 29,5 17,2 0,0
08.08.2020 13:00:00 26,9 17,2 0,0
08.08.2020 12:00:00 25,9 17,0 0,0
08.08.2020 11:00:00 25,1 16,1 0,0
08.08.2020 10:00:00 23,9 16,4 0,0
08.08.2020 09:00:00 24,3 16,2 0,0
08.08.2020 08:00:00 22,7 15,8 0,0
08.08.2020 07:00:00 23,0 15,4 0,0
08.08.2020 06:00:00 22,6 14,3 0,0
08.08.2020 05:00:00 21,6 15,1 0,0
08.08.2020 04:00:00 21,0 15,5 0,0
08.08.2020 03:00:00 20,9 14,1 0,0
08.08.2020 02:00:00 22,2 14,9 0,0
08.08.2020 01:00:00 22,3 14,4 0,0
08.08.2020 00:00:00 23,1 14,4 0,0
07.08.2020 23:00:00 23,4 14,8 0,0
07.08.2020 22:00:00 23,5 13,8 0,0
07.08.2020 21:00:00 26,3 13,4 0,0
07.08.2020 20:00:00 29,5 11,9 0,0
07.08.2020 19:00:00 31,1 10,5 0,0
07.08.2020 18:00:00 32,2 8,8 0,0
07.08.2020 17:00:00 33,8 8,4 0,0
07.08.2020 16:00:00 35,7 11,3 0,0
07.08.2020 15:00:00 35,5 11,8 0,0
07.08.2020 14:00:00 34,4 13,5 0,0
07.08.2020 13:00:00 31,7 13,4 0,0
07.08.2020 12:00:00 29,8 12,2 0,0
07.08.2020 11:00:00 29,1 15,1 0,0
07.08.2020 10:00:00 25,8 15,2 0,0
07.08.2020 09:00:00 23,1 15,8 0,0
07.08.2020 08:00:00 18,3 15,7 0,0
07.08.2020 07:00:00 15,8 13,9 0,0
07.08.2020 06:00:00 15,3 13,2 0,0
07.08.2020 05:00:00 15,8 13,0 0,0
07.08.2020 04:00:00 16,5 12,9 0,0
07.08.2020 03:00:00 17,5 12,8 0,0
07.08.2020 02:00:00 19,1 13,1 0,0
07.08.2020 01:00:00 19,1 12,9 0,0
07.08.2020 00:00:00 19,5 13,4 0,0
06.08.2020 23:00:00 20,3 13,1 0,0
06.08.2020 22:00:00 21,4 12,7 0,0
06.08.2020 21:00:00 23,8 12,4 0,0
06.08.2020 20:00:00 26,3 13,1 0,0
06.08.2020 19:00:00 27,8 14,0 0,0
06.08.2020 18:00:00 28,7 14,5 0,0
06.08.2020 17:00:00 28,8 15,8 0,0
06.08.2020 16:00:00 28,3 16,2 0,0
06.08.2020 15:00:00 27,1 17,0 0,0
06.08.2020 14:00:00 25,2 17,0 0,0
06.08.2020 13:00:00 24,1 16,7 0,0
06.08.2020 12:00:00 23,3 17,3 0,0
06.08.2020 11:00:00 21,7 16,8 0,0
06.08.2020 10:00:00 20,6 17,3 0,0
06.08.2020 09:00:00 20,2 17,6 0,0
06.08.2020 08:00:00 20,3 17,0 0,0
06.08.2020 07:00:00 19,7 16,8 0,0
06.08.2020 06:00:00 19,3 16,7 0,0
06.08.2020 05:00:00 19,3 16,6 0,0
06.08.2020 04:00:00 19,1 16,4 0,0
06.08.2020 03:00:00 19,1 16,1 0,0
06.08.2020 02:00:00 19,3 16,0 0,0
06.08.2020 01:00:00 19,5 15,6 0,0
06.08.2020 00:00:00 19,8 14,9 0,0
05.08.2020 23:00:00 20,2 14,1 0,0
05.08.2020 22:00:00 20,8 13,8 0,0
05.08.2020 21:00:00 21,1 13,3 0,0
05.08.2020 20:00:00 22,1 13,1 0,0
05.08.2020 19:00:00 22,8 11,0 0,0
05.08.2020 18:00:00 23,6 11,1 0,0
05.08.2020 17:00:00 24,0 9,1 0,0
05.08.2020 16:00:00 25,1 7,1 0,0
05.08.2020 15:00:00 25,8 6,6 0,0
05.08.2020 14:00:00 25,2 7,4 0,0
05.08.2020 13:00:00 24,7 8,1 0,0
05.08.2020 12:00:00 24,4 10,1 0,0
05.08.2020 11:00:00 23,1 10,0 0,0
05.08.2020 10:00:00 20,9 12,0 0,0
05.08.2020 09:00:00 18,7 12,4 0,0
05.08.2020 08:00:00 17,8 13,1 0,0
05.08.2020 07:00:00 17,1 13,3 0,0
05.08.2020 06:00:00 16,6 13,1 0,0
05.08.2020 05:00:00 16,1 12,8 0,0
05.08.2020 04:00:00 15,8 12,3 0,0
05.08.2020 03:00:00 16,1 11,8 0,0
05.08.2020 02:00:00 16,3 11,5 0,0
05.08.2020 01:00:00 16,2 11,0 0,0
05.08.2020 00:00:00 16,8 10,9 0,0
04.08.2020 23:00:00 16,9 10,9 0,0
04.08.2020 22:00:00 17,7 11,0 0,0
04.08.2020 21:00:00 18,6 10,7 0,0
04.08.2020 20:00:00 19,7 10,5 0,0
04.08.2020 19:00:00 20,8 10,2 0,0
04.08.2020 18:00:00 22,5 9,5 0,0
04.08.2020 17:00:00 21,2 7,2 0,0
04.08.2020 16:00:00 22,8 6,0 0,0
04.08.2020 15:00:00 23,0 7,0 0,0
04.08.2020 14:00:00 21,3 5,8 0,0
04.08.2020 13:00:00 22,4 7,3 0,0
04.08.2020 12:00:00 21,6 8,7 0,0
04.08.2020 11:00:00 21,5 11,3 0,0
04.08.2020 10:00:00 18,9 12,2 0,0
04.08.2020 09:00:00 18,1 12,1 0,0
04.08.2020 08:00:00 15,5 12,0 0,0
04.08.2020 07:00:00 12,9 12,2 0,0
04.08.2020 06:00:00 12,3 11,2 0,0
04.08.2020 05:00:00 12,6 11,2 0,0
04.08.2020 04:00:00 13,2 11,5 0,0
04.08.2020 03:00:00 13,9 11,5 0,0
04.08.2020 02:00:00 14,6 11,8 0,0
04.08.2020 01:00:00 15,8 11,7 0,0
04.08.2020 00:00:00 16,8 12,2 0,0
03.08.2020 23:00:00 17,6 12,4 0,0
03.08.2020 22:00:00 18,4 12,3 0,0
03.08.2020 21:00:00 19,5 7,0 0,0

tt = temperature
td = dewpoint
rr = precipitation

Next stations